Location: Bidwell Hollow
(37.7387°N, 90.1707°W)
Time: 14:51:48
(UTC+00:00)

Tiros 1 despin weight - Pass Details

Date: 23 May 2026
Orbit: 554 x 591 km, 48.2° (Epoch: 6 June)

Event Time Altitude Azimuth Distance (km) Brightness Sun altitude
Rises 10:37:28 0° 294° (WNW) 2,767 ? -2.1°
Reaches altitude 10° 10:40:16 10° 312° (NW) 1,862 ? -1.7°
Maximum altitude 10:43:23 19° 359° (N) 1,350 ? -1.1°
Drops below altitude 10° 10:46:30 10° 47° (NE) 1,848 ? -0.6°
Sets 10:49:15 0° 65° (ENE) 2,737 ? -0.1°
